Location: Unspecified
(48.7670°N, 0.0000°E)
Time: 20:31:28
(UTC+00:00)

Explorer 7 - All Passes

Search period start: 24 June 2019 00:00
Search period end: 04 July 2019 00:00
Orbit: 485 x 680 km, 50.3° (Epoch: 24 June)

Date Brightness Start Highest point End Pass type
(mag) Time Alt. Az. Time Alt. Az. Time Alt. Az.
24 Jun - 07:12:53 10° S 07:15:50 19° SE 07:18:57 10° E daylight
24 Jun - 08:51:30 10° WSW 08:55:46 65° SSE 09:00:22 10° ENE daylight
24 Jun - 10:31:57 10° W 10:36:26 73° N 10:41:12 10° E daylight
24 Jun - 12:12:35 10° WNW 12:17:15 88° SSW 12:22:07 10° ESE daylight
24 Jun - 13:53:19 10° W 13:57:37 34° SW 14:02:02 10° SSE daylight
25 Jun - 07:17:07 10° SSW 07:20:40 27° SE 07:24:26 10° E daylight
25 Jun - 08:56:30 10° WSW 09:00:50 82° SSE 09:05:28 10° ENE daylight
25 Jun - 10:37:05 10° W 10:41:35 72° N 10:46:22 10° E daylight
25 Jun - 12:17:41 10° WNW 12:22:19 72° SSW 12:27:10 10° ESE daylight
25 Jun - 13:58:39 10° W 14:02:31 25° SW 14:06:27 10° SSE daylight
26 Jun - 07:21:40 10° SW 07:25:33 38° SSE 07:29:43 10° E daylight
26 Jun - 09:01:34 10° WSW 09:05:55 84° NNW 09:10:35 10° ENE daylight
26 Jun - 10:42:12 10° W 10:46:44 76° N 10:51:31 10° E daylight
26 Jun - 12:22:47 10° WNW 12:27:21 56° SSW 12:32:06 10° SE daylight
26 Jun - 14:04:16 10° W 14:07:21 17° SW 14:10:27 10° S daylight
27 Jun - 05:48:42 10° SSE 05:50:45 14° SE 05:52:53 10° ESE daylight
27 Jun - 07:26:26 10° SW 07:30:31 53° SSE 07:34:53 10° ENE daylight
27 Jun - 09:06:42 10° W 09:11:03 76° N 09:15:42 10° E daylight
27 Jun - 10:47:19 10° WNW 10:51:52 84° NNE 10:56:39 10° ESE daylight
27 Jun - 12:27:57 10° WNW 12:32:20 42° SSW 12:36:54 10° SE daylight
27 Jun - 14:10:45 10° WSW 14:12:06 11° SW 14:13:27 10° SSW daylight
28 Jun - 05:52:29 10° S 05:55:32 20° SE 05:58:43 10° E daylight
28 Jun - 07:31:21 10° WSW 07:35:31 70° SSE 07:40:00 10° ENE daylight
28 Jun - 09:11:50 10° W 09:16:11 72° N 09:20:50 10° E daylight
28 Jun - 10:52:25 10° WNW 10:56:57 83° SSW 11:01:44 10° ESE daylight
28 Jun - 12:33:11 10° W 12:37:16 30° SW 12:41:28 10° SSE daylight
29 Jun - 05:56:50 10° SSW 06:00:22 29° SE 06:04:09 10° E daylight
29 Jun - 07:36:23 10° WSW 07:40:35 87° SSE 07:45:06 10° ENE daylight
29 Jun - 09:16:58 10° W 09:21:20 73° N 09:26:00 10° E daylight
29 Jun - 10:57:31 10° WNW 11:02:01 67° SSW 11:06:45 10° ESE daylight
29 Jun - 12:38:36 10° W 12:42:08 21° SW 12:45:46 10° S daylight
30 Jun - 06:01:28 10° SW 06:05:18 41° SSE 06:09:23 10° ENE daylight
30 Jun - 07:41:29 10° W 07:45:42 81° N 07:50:13 10° ENE daylight
30 Jun - 09:22:05 10° WNW 09:26:29 78° N 09:31:09 10° E daylight
30 Jun - 11:02:38 10° WNW 11:07:02 50° SSW 11:11:38 10° SE daylight
30 Jun - 12:44:24 10° WSW 12:46:57 15° SW 12:49:32 10° SSW daylight
01 Jul - 04:28:10 10° S 04:30:27 15° SE 04:32:50 10° E daylight
01 Jul - 06:06:16 10° SW 06:10:16 57° SSE 06:14:32 10° ENE daylight
01 Jul - 07:46:36 10° W 07:50:50 73° N 07:55:20 10° E daylight
01 Jul - 09:27:11 10° WNW 09:31:35 88° N 09:36:16 10° ESE daylight
01 Jul - 11:07:49 10° W 11:12:00 37° SSW 11:16:22 10° SSE daylight
02 Jul - 04:32:08 10° SSW 04:35:15 22° SE 04:38:31 10° E daylight
02 Jul - 06:11:14 10° WSW 06:15:18 75° SSE 06:19:39 10° ENE daylight
02 Jul - 07:51:45 10° W 07:55:58 71° N 08:00:29 10° E daylight
02 Jul - 09:32:17 10° WNW 09:36:41 77° SSW 09:41:20 10° ESE daylight
02 Jul - 11:13:07 10° W 11:16:54 26° SW 11:20:51 10° SSE daylight
03 Jul - 04:36:35 10° SSW 04:40:08 32° SE 04:43:52 10° E daylight
03 Jul - 06:16:18 10° WSW 06:20:22 88° NNW 06:24:46 10° ENE daylight
03 Jul - 07:56:52 10° W 08:01:07 73° N 08:05:38 10° E daylight
03 Jul - 09:37:23 10° WNW 09:41:43 60° SSW 09:46:19 10° SE daylight
03 Jul - 11:18:38 10° W 11:21:45 18° SW 11:24:59 10° S daylight
